Time,TemperatureF,DewpointF,PressureIn,WindDirection,WindDirectionDegrees,WindSpeedMPH,WindSpeedGustMPH,Humidity,HourlyPrecipIn,Conditions,Clouds,dailyrainin,SolarRadiationWatts/m^2,SoftwareType,DateUTC
2013-03-12 00:02:00,49.0,-99.9,-100.00,NNE,15,0.0,5.0,0,0.00,,,0.01,4.000000,,2013-03-12 07:02:00,
2013-03-12 03:33:00,45.0,-99.9,-100.00,East,100,0.0,3.0,0,0.00,,,0.00,3.000000,,2013-03-12 10:33:00,
2013-03-12 03:42:00,45.0,-99.9,-100.00,East,100,0.0,3.0,0,0.00,,,0.00,3.000000,,2013-03-12 10:42:00,
2013-03-12 03:53:00,45.0,-99.9,-100.00,East,100,0.0,3.0,0,0.00,,,0.00,3.000000,,2013-03-12 10:53:00,
2013-03-12 04:02:00,45.0,-99.9,-100.00,East,100,0.0,3.0,0,0.00,,,0.00,3.000000,,2013-03-12 11:02:00,
2013-03-12 04:33:00,45.0,-99.9,-100.00,SE,139,0.0,0.0,0,0.00,,,0.00,3.000000,,2013-03-12 11:33:00,
2013-03-12 04:43:00,45.0,-99.9,-100.00,SE,139,0.0,0.0,0,0.00,,,0.00,3.000000,,2013-03-12 11:43:00,
2013-03-12 04:52:00,45.0,-99.9,-100.00,SE,139,0.0,0.0,0,0.00,,,0.00,3.000000,,2013-03-12 11:52:00,
2013-03-12 05:03:00,45.0,-99.9,-100.00,SE,139,0.0,0.0,0,0.00,,,0.00,3.000000,,2013-03-12 12:03:00,
2013-03-12 05:32:00,46.0,-99.9,-100.00,SE,137,0.0,0.0,0,0.00,,,0.00,3.000000,,2013-03-12 12:32:00,
2013-03-12 05:42:00,46.0,-99.9,-100.00,SE,137,0.0,0.0,0,0.00,,,0.00,3.000000,,2013-03-12 12:42:00,
2013-03-12 05:52:00,46.0,-99.9,-100.00,SE,137,0.0,0.0,0,0.00,,,0.00,3.000000,,2013-03-12 12:52:00,
2013-03-12 06:02:00,46.0,-99.9,-100.00,SE,137,0.0,0.0,0,0.00,,,0.00,3.000000,,2013-03-12 13:02:00,
2013-03-12 06:33:00,46.0,-99.9,-100.00,SE,145,0.0,4.0,0,0.00,,,0.00,3.000000,,2013-03-12 13:33:00,
2013-03-12 06:43:00,46.0,-99.9,-100.00,SE,145,0.0,4.0,0,0.00,,,0.00,3.000000,,2013-03-12 13:43:00,
2013-03-12 06:53:00,46.0,-99.9,-100.00,SE,145,0.0,4.0,0,0.00,,,0.00,3.000000,,2013-03-12 13:53:00,
2013-03-12 07:03:00,46.0,-99.9,-100.00,SE,145,0.0,4.0,0,0.00,,,0.00,3.000000,,2013-03-12 14:03:00,
2013-03-12 07:34:00,45.0,-99.9,-100.00,NNW,332,0.0,4.0,0,0.00,,,0.00,3.000000,,2013-03-12 14:34:00,
2013-03-12 07:43:00,45.0,-99.9,-100.00,NNW,332,0.0,4.0,0,0.00,,,0.00,3.000000,,2013-03-12 14:43:00,
2013-03-12 07:53:00,45.0,-99.9,-100.00,NNW,332,0.0,4.0,0,0.00,,,0.00,3.000000,,2013-03-12 14:53:00,
2013-03-12 08:03:00,45.0,-99.9,-100.00,NNW,332,0.0,4.0,0,0.00,,,0.00,3.000000,,2013-03-12 15:03:00,
2013-03-12 08:33:00,46.0,-99.9,-100.00,SSE,163,2.0,4.0,0,0.00,,,0.00,9.000000,,2013-03-12 15:33:00,
2013-03-12 08:43:00,46.0,-99.9,-100.00,SSE,163,2.0,4.0,0,0.00,,,0.00,9.000000,,2013-03-12 15:43:00,
2013-03-12 08:54:00,46.0,-99.9,-100.00,SSE,163,2.0,4.0,0,0.00,,,0.00,9.000000,,2013-03-12 15:54:00,
2013-03-12 09:03:00,46.0,-99.9,-100.00,SSE,163,2.0,4.0,0,0.00,,,0.00,9.000000,,2013-03-12 16:03:00,
2013-03-12 09:33:00,47.0,-99.9,-100.00,SSE,160,1.0,6.0,0,0.00,,,0.00,48.000000,,2013-03-12 16:33:00,
2013-03-12 09:43:00,47.0,-99.9,-100.00,SSE,160,1.0,6.0,0,0.00,,,0.00,48.000000,,2013-03-12 16:43:00,
2013-03-12 09:53:00,47.0,-99.9,-100.00,SSE,160,1.0,6.0,0,0.00,,,0.00,48.000000,,2013-03-12 16:53:00,
2013-03-12 10:03:00,47.0,-99.9,-100.00,SSE,160,1.0,6.0,0,0.00,,,0.00,48.000000,,2013-03-12 17:03:00,
2013-03-12 10:34:00,50.0,-99.9,-100.00,South,177,4.0,6.0,0,0.00,,,0.00,174.000000,,2013-03-12 17:34:00,
2013-03-12 10:44:00,50.0,-99.9,-100.00,South,177,4.0,6.0,0,0.00,,,0.00,174.000000,,2013-03-12 17:44:00,
2013-03-12 10:54:00,50.0,-99.9,-100.00,South,177,4.0,6.0,0,0.00,,,0.00,174.000000,,2013-03-12 17:54:00,
2013-03-12 11:03:00,50.0,-99.9,-100.00,South,177,4.0,6.0,0,0.00,,,0.00,174.000000,,2013-03-12 18:03:00,
2013-03-12 11:04:00,51.0,-99.9,-100.00,SSW,201,2.0,7.0,0,0.00,,,0.00,261.000000,,2013-03-12 18:04:00,
2013-03-12 11:33:00,51.0,-99.9,-100.00,SSW,201,2.0,7.0,0,0.00,,,0.00,261.000000,,2013-03-12 18:33:00,
2013-03-12 11:43:00,51.0,-99.9,-100.00,SSW,201,2.0,7.0,0,0.00,,,0.00,261.000000,,2013-03-12 18:43:00,
2013-03-12 11:54:00,51.0,-99.9,-100.00,SSW,201,2.0,7.0,0,0.00,,,0.00,261.000000,,2013-03-12 18:54:00,
2013-03-12 12:33:00,52.0,-99.9,-100.00,WSW,242,3.0,9.0,0,0.00,,,0.00,255.000000,,2013-03-12 19:33:00,
2013-03-12 12:44:00,52.0,-99.9,-100.00,WSW,242,3.0,9.0,0,0.00,,,0.00,255.000000,,2013-03-12 19:44:00,
2013-03-12 12:53:00,52.0,-99.9,-100.00,WSW,242,3.0,9.0,0,0.00,,,0.00,255.000000,,2013-03-12 19:53:00,
2013-03-12 13:02:00,52.0,-99.9,-100.00,WSW,242,3.0,9.0,0,0.00,,,0.00,255.000000,,2013-03-12 20:02:00,
2013-03-12 13:33:00,55.0,-99.9,-100.00,SW,221,2.0,9.0,0,0.00,,,0.00,330.000000,,2013-03-12 20:33:00,
2013-03-12 13:42:00,55.0,-99.9,-100.00,SW,221,2.0,9.0,0,0.00,,,0.00,330.000000,,2013-03-12 20:42:00,
2013-03-12 13:53:00,55.0,-99.9,-100.00,SW,221,2.0,9.0,0,0.00,,,0.00,330.000000,,2013-03-12 20:53:00,
2013-03-12 14:03:00,55.0,-99.9,-100.00,SW,221,2.0,9.0,0,0.00,,,0.00,330.000000,,2013-03-12 21:03:00,
2013-03-12 14:33:00,59.0,-99.9,-100.00,SW,228,4.0,8.0,0,0.00,,,0.00,662.000000,,2013-03-12 21:33:00,
2013-03-12 14:43:00,59.0,-99.9,-100.00,SW,228,4.0,8.0,0,0.00,,,0.00,662.000000,,2013-03-12 21:43:00,
2013-03-12 14:53:00,59.0,-99.9,-100.00,SW,228,4.0,8.0,0,0.00,,,0.00,662.000000,,2013-03-12 21:53:00,
2013-03-12 15:03:00,59.0,-99.9,-100.00,SW,228,4.0,8.0,0,0.00,,,0.00,662.000000,,2013-03-12 22:03:00,
2013-03-12 15:33:00,55.0,-99.9,-100.00,WSW,253,5.0,9.0,0,0.00,,,0.00,637.000000,,2013-03-12 22:33:00,
2013-03-12 15:43:00,55.0,-99.9,-100.00,WSW,253,5.0,9.0,0,0.00,,,0.00,637.000000,,2013-03-12 22:43:00,
2013-03-12 15:54:00,55.0,-99.9,-100.00,WSW,253,5.0,9.0,0,0.00,,,0.00,637.000000,,2013-03-12 22:54:00,
2013-03-12 16:03:00,55.0,-99.9,-100.00,WSW,253,5.0,9.0,0,0.00,,,0.00,637.000000,,2013-03-12 23:03:00,
2013-03-12 16:34:00,51.0,-99.9,-100.00,WNW,284,4.0,8.0,0,0.00,,,0.00,393.000000,,2013-03-12 23:34:00,
2013-03-12 16:44:00,51.0,-99.9,-100.00,WNW,284,4.0,8.0,0,0.00,,,0.00,393.000000,,2013-03-12 23:44:00,
2013-03-12 16:53:00,51.0,-99.9,-100.00,WNW,284,4.0,8.0,0,0.00,,,0.00,393.000000,,2013-03-12 23:53:00,
2013-03-12 17:03:00,51.0,-99.9,-100.00,WNW,284,4.0,8.0,0,0.00,,,0.00,393.000000,,2013-03-13 00:03:00,
2013-03-12 17:33:00,50.0,-99.9,-100.00,NW,304,3.0,8.0,0,0.00,,,0.00,208.000000,,2013-03-13 00:33:00,
2013-03-12 17:43:00,50.0,-99.9,-100.00,NW,304,3.0,8.0,0,0.00,,,0.00,208.000000,,2013-03-13 00:43:00,
2013-03-12 17:54:00,50.0,-99.9,-100.00,NW,304,3.0,8.0,0,0.00,,,0.00,208.000000,,2013-03-13 00:54:00,
2013-03-12 18:03:00,50.0,-99.9,-100.00,NW,304,3.0,8.0,0,0.00,,,0.00,208.000000,,2013-03-13 01:03:00,
2013-03-12 18:33:00,49.0,-99.9,-100.00,WNW,298,1.0,6.0,0,0.00,,,0.00,120.000000,,2013-03-13 01:33:00,
2013-03-12 18:43:00,49.0,-99.9,-100.00,WNW,298,1.0,6.0,0,0.00,,,0.00,120.000000,,2013-03-13 01:43:00,
2013-03-12 18:53:00,49.0,-99.9,-100.00,WNW,298,1.0,6.0,0,0.00,,,0.00,120.000000,,2013-03-13 01:53:00,
2013-03-12 19:03:00,49.0,-99.9,-100.00,WNW,298,1.0,6.0,0,0.00,,,0.00,120.000000,,2013-03-13 02:03:00,
2013-03-12 19:33:00,47.0,-99.9,-100.00,South,179,0.0,5.0,0,0.00,,,0.00,24.000000,,2013-03-13 02:33:00,
2013-03-12 19:43:00,47.0,-99.9,-100.00,South,179,0.0,5.0,0,0.00,,,0.00,24.000000,,2013-03-13 02:43:00,
2013-03-12 19:53:00,47.0,-99.9,-100.00,South,179,0.0,5.0,0,0.00,,,0.00,24.000000,,2013-03-13 02:53:00,
2013-03-12 20:03:00,47.0,-99.9,-100.00,South,179,0.0,5.0,0,0.00,,,0.00,24.000000,,2013-03-13 03:03:00,
2013-03-12 20:33:00,48.0,-99.9,-100.00,SW,229,0.0,3.0,0,0.00,,,0.00,5.000000,,2013-03-13 03:33:00,
2013-03-12 20:43:00,48.0,-99.9,-100.00,SW,229,0.0,3.0,0,0.00,,,0.00,5.000000,,2013-03-13 03:43:00,
2013-03-12 20:53:00,48.0,-99.9,-100.00,SW,229,0.0,3.0,0,0.00,,,0.00,5.000000,,2013-03-13 03:53:00,
2013-03-12 21:03:00,48.0,-99.9,-100.00,SW,229,0.0,3.0,0,0.00,,,0.00,5.000000,,2013-03-13 04:03:00,
2013-03-12 21:33:00,48.0,-99.9,-100.00,SW,226,0.0,3.0,0,0.00,,,0.00,3.000000,,2013-03-13 04:33:00,
2013-03-12 21:43:00,48.0,-99.9,-100.00,SW,226,0.0,3.0,0,0.00,,,0.00,3.000000,,2013-03-13 04:43:00,
2013-03-12 21:53:00,48.0,-99.9,-100.00,SW,226,0.0,3.0,0,0.00,,,0.00,3.000000,,2013-03-13 04:53:00,
2013-03-12 22:03:00,48.0,-99.9,-100.00,SW,226,0.0,3.0,0,0.00,,,0.00,3.000000,,2013-03-13 05:03:00,
2013-03-12 22:33:00,48.0,-99.9,-100.00,South,182,0.0,0.0,0,0.00,,,0.00,3.000000,,2013-03-13 05:33:00,
2013-03-12 22:43:00,48.0,-99.9,-100.00,South,182,0.0,0.0,0,0.00,,,0.00,3.000000,,2013-03-13 05:43:00,
2013-03-12 22:53:00,48.0,-99.9,-100.00,South,182,0.0,0.0,0,0.00,,,0.00,3.000000,,2013-03-13 05:53:00,
2013-03-12 23:02:00,48.0,-99.9,-100.00,South,182,0.0,0.0,0,0.00,,,0.00,3.000000,,2013-03-13 06:02:00,
2013-03-12 23:33:00,48.0,-99.9,-100.00,SSW,203,0.0,5.0,0,0.00,,,0.00,3.000000,,2013-03-13 06:33:00,
2013-03-12 23:43:00,48.0,-99.9,-100.00,SSW,203,0.0,5.0,0,0.00,,,0.00,3.000000,,2013-03-13 06:43:00,
2013-03-12 23:53:00,48.0,-99.9,-100.00,SSW,203,0.0,5.0,0,0.00,,,0.00,3.000000,,2013-03-13 06:53:00,